Regional Weather Roundup
Issued by NWS

Home | Current Version | Previous Version | Graphics & Text | Print | Product List | Glossary On
Versions: 1 2 3 4 5 6 7 8 9 10 11 12 13 14 15 16 17 18 19 20 21 22 23 24 25 26 27 28 29 30 31 32 33 34 35 36 37 38 39 40 41 42 43 44 45 46 47 48 49 50
000
ASUS43 KLOT 050910
RWRIL

ILLINOIS REGIONAL WEATHER ROUNDUP
NATIONAL WEATHER SERVICE CHICAGO/ROMEOVILLE IL
300 AM CST THU MAR 05 2015

NOTE: "FAIR" INDICATES FEW OR NO CLOUDS BELOW 12,000 FEET WITH NO
SIGNIFICANT WEATHER AND/OR OBSTRUCTIONS TO VISIBILITY.

* THESE STATIONS ARE NOT UNDER NWS QUALITY CONTROL. THEY ALSO MAY NOT
  REPORT WEATHER SUCH AS PRECIPITATION OR FOG.

ILZ001-002-007-009-015-016-024-051000-
NORTHWEST ILLINOIS

CITY           SKY/WX    TMP DP  RH WIND       PRES   REMARKS
MOLINE         PTCLDY     8  -4  58 NW8       30.43S WCI  -4
STERLING*      PTCLDY     5  -2  72 NW7       30.39S WCI  -7
SAVANNA*       MOCLDY     4  -4  71 NW5       30.41S WCI  -5
$$

ILZ003-004-008-010-011-017-018-051000-
NORTH CENTRAL ILLINOIS

CITY           SKY/WX    TMP DP  RH WIND       PRES   REMARKS
ROCKFORD       MOCLDY     5  -5  63 NW7       30.38F WCI  -7
FREEPORT*      MOCLDY     2  -6  69 NW5       30.39S WCI  -7
ROCHELLE*      PTCLDY     3  -4  72 CALM      30.38S
DE KALB*       PTCLDY    -1  -7  76 NW6       30.35F WCI -13
PERU*          CLEAR      6  -1  73 NW8       30.40S WCI  -7
$$

ILZ005-006-012>014-019>023-051000-
NORTHEAST ILLINOIS

CITY           SKY/WX    TMP DP  RH WIND       PRES   REMARKS
CHICAGO-OHARE  CLOUDY     8  -6  52 N8        30.34F WCI  -4
CHICAGO-MIDWAY CLOUDY    12  -4  48 N12       30.35F WCI  -2
AURORA         CLEAR      1  -7  68 NW7       30.36F WCI -12
LANSING*       CLEAR     11  -3  52 NW5       30.34F WCI   3
JOLIET*        CLEAR      8  -2  64 CALM      30.37F
WAUKEGAN       PTCLDY     3  -9  57 NW6       30.34F WCI  -8
DUPAGE AIRPORT CLEAR      4  -5  66 N8        30.34F WCI  -9
KANKAKEE*      CLEAR      7  -1  70 NW7       30.36F WCI  -5
WHEELING       PTCLDY     6  -5  60 NW7       30.37F WCI  -6
MORRIS*        CLEAR      3  -2  81 NW5       30.37F WCI  -6
ROMEOVILLE*    CLEAR      9  -3  59 N9        30.35F WCI  -4
NORTHERLY ISL    N/A     14   0  53 NW10        N/A  WCI   1
$$

LMZ740>746-051000-
SOUTHERN LAKE MICHIGAN

STATION/POSITION SKY/WX   TEMP    WIND        PRES    VSBY  WAVE
                          AIR SEA DIR/SP/G                  HT/PER
                          (F)     (DEG/KT/KT) (MB)    (MI)  (FT/S)
WAUKEGAN HARBOR             7                   N/A
HARRISON CRIB              14     340/ 18/ 21   N/A
BURNHAM HARBOR             14     310/  7/ 15   N/A
CALUMET HARBOR             13     290/  7/  9   N/A
MICHIGAN CITY              15     300/ 10/ 11   N/A
$$

ILZ025>027-034>036-040-047-049-050-058-095>099-051000-
WEST-CENTRAL ILLINOIS

CITY           SKY/WX    TMP DP  RH WIND       PRES   REMARKS
QUINCY         MOCLDY    14   5  67 N12       30.41R WCI   0
GALESBURG*     PTCLDY     8   1  72 N8        30.41S WCI  -4
MACOMB*        CLOUDY    12   6  76 N8        30.43F WCI   1
JACKSONVILLE*  PTCLDY    15   5  64 N5        30.41S WCI   7
PITTSFIELD*    CLOUDY    16   6  65 NE8       30.41S WCI   5
$$

ILZ028>032-037-038-041>044-048-051>054-059>061-051000-
CENTRAL ILLINOIS

CITY           SKY/WX    TMP DP  RH WIND       PRES   REMARKS
PONTIAC        CLEAR      7   0  73 NW8       30.39S WCI  -5
BLOOMINGTON    CLEAR      9   0  67 N13       30.36F WCI  -6
DECATUR        CLEAR     11   0  61 N12       30.38S WCI  -3
PEORIA         PTCLDY    12   0  58 N7        30.40F WCI   1
LACON*         PTCLDY     8  -1  65 N5        30.41S WCI   0
LINCOLN*       MOCLDY    13   3  64 N7        30.43S WCI   3
SPRINGFIELD    CLEAR     12   1  61 N7        30.41R WCI   1
TAYLORVILLE    CLEAR     12   3  67 N8        30.40F WCI   1
$$

ILZ033-039-045-046-055>057-062-063-051000-
EAST-CENTRAL ILLINOIS

CITY           SKY/WX    TMP DP  RH WIND       PRES   REMARKS
CHAMPAIGN      CLEAR      9   0  67 N13       30.36S WCI  -7
DANVILLE*      PTCLDY     9   1  68 NW12      30.33R WCI  -6
RANTOUL*       CLEAR      8   1  74 NW7       30.36S WCI  -4
MATTOON        PTCLDY    13   4  67 N18       30.35F WCI  -4
PARIS*         MOCLDY    15   5  64 N9        30.36F WCI   3
$$

ILZ079-100>102-051000-
SOUTHWEST ILLINOIS

CITY           SKY/WX    TMP DP  RH WIND       PRES   REMARKS
ALTON          PTCLDY    17   2  52 CALM      30.40S
BELLEVILLE     CLOUDY    20   7  57 N12       30.39F WCI   7
CAHOKIA*       PTCLDY    21   6  52 N8        30.41S WCI  11
SPARTA*        MOCLDY    20   7  57 N6        30.39R WCI  12
$$

ILZ064>066-069>071-074>076-080>082-084>086-088>090-092>094-051000-
SOUTH-CENTRAL ILLINOIS

CITY           SKY/WX    TMP DP  RH WIND       PRES   REMARKS
CARBONDALE     CLOUDY    20   5  52 N8        30.36S WCI  10
CAIRO*         CLOUDY    23  14  67 N7        30.35F WCI  15
EFFINGHAM*     MOCLDY    17   2  51 N10G21    30.38F WCI   5
MARION         CLOUDY    21   7  53 CALM      30.36S
MT. VERNON     CLOUDY    19   3  49 N9G17     30.37R WCI   9
CENTRALIA*     MOCLDY    19   6  56 N10       30.38R WCI   8
SALEM*         MOCLDY    20   8  58 N13       30.38R WCI   8
METROPOLIS*    CLOUDY    21  12  69 N9        30.32R WCI  10
$$

ILZ067-068-072-073-078-083-087-091-051000-
SOUTHEAST ILLINOIS

CITY           SKY/WX    TMP DP  RH WIND       PRES   REMARKS
LAWRENCEVILLE  CLOUDY    19   8  62 N14       30.34F WCI   6
FLORA*         CLOUDY    18   7  60 N13       30.38R WCI   5
FAIRFIELD*     CLOUDY    19   7  58 N10       30.36R WCI   8
HARRISBURG*    CLOUDY    21   5  50 N13G20    30.37R WCI   8
ROBINSON*      CLOUDY    18   9  70 N12       30.36S WCI   5
CARMI*         CLOUDY    22  11  62 N13       30.36R WCI  10
$$

ABBREVIATIONS USED IN REMARKS
   TC - TEMPERATURE IN CELSIUS
  WCI - WIND CHILL INDEX
   HX - HEAT INDEX
  VSB - VISIBILITY
$$



USA.gov is the U.S. government's official web portal to all federal, state and local government web resources and services.